Weather in Vakhonino

Russia / Tver Oblast     56°36′37″N   36°37′10″E
temp.,
°C
wind,
m/s
gust,
m/s
humid.,
%
clouds,
%
prec.,
mm/h
press.,
hPa
HPBL,
m
23 april, fri
fri2300:00+7sse4118636 0.0 1013308
03:00+6s4119255 0.0 1012272
06:00+6sse413895 0.0 1012378
09:00+11s5116976 0.0 1012877
12:00+13ssw61465100 0.6 10111895
15:00+9wsw4682100 1.4 1012584
18:00+5wsw3592100 6.6 1012337
21:00+4sse2597100 8.6 1012146
24 april, sat
sat2400:00+4sse2495100 0.0 1011162
03:00+4s1295100 0.0 100966
06:00+4sw1189100 0.1 100834
09:00+5w2383100 0.2 1007644
12:00+5nw2578100 0.6 1007789
15:00+8nw3462100 0.8 10051230
18:00+6nw3680100 1.1 1006945
21:00+4nw388564 1.6 1006373
25 april, sun
sun2500:00+1w310855 0.1 1007309
03:00−1wsw410885 0.1 1007330
06:00+1w51090100 0.0 1007719
09:00+2w4877100 0.1 10081290
12:00+6w6948100 0.1 10072136
15:00+8wsw6938100 0.1 10072523
18:00+6w585260 0.1 10071550
21:00+1wsw38775 0.1 1009200
26 april, mon
mon2600:000sw310835 0.0 1009248
03:00−1sw39885 0.0 1009286
06:00−1sw39875 0.0 1010366
09:00+4wsw567098 0.0 10101032
12:00+3wsw4667100 0.1 10101151
15:00+5wsw4659100 0.1 10101412
18:00+6sw35535 0.1 10091558
21:000wsw22785 0.1 100917
27 april, tue
tue2700:00−1sw23865 0.0 100947
03:00−2wsw22875 0.0 100940
06:00−1sw24835 0.0 1008129
09:00+4wsw35535 0.0 10071109
12:00+8wsw3539100 0.0 10062336
15:00+8wsw4636100 0.0 10052360
18:00+7wsw355163 0.1 1005986
21:00+2wsw378093 0.2 1006137